Year,Month,Day,Hour,Minute,Value (Times are PST for temperature in C)
2016,05,28,00,00,10.90
2016,05,28,00,01,10.90
2016,05,28,00,02,10.90
2016,05,28,00,03,10.90
2016,05,28,00,04,10.90
2016,05,28,00,05,10.90
2016,05,28,00,06,10.90
2016,05,28,00,07,10.90
2016,05,28,00,09,10.90
2016,05,28,00,10,10.90
2016,05,28,00,11,10.90
2016,05,28,00,12,10.90
2016,05,28,00,13,10.90
2016,05,28,00,14,10.90
2016,05,28,00,15,10.90
2016,05,28,00,16,10.90
2016,05,28,00,17,10.90
2016,05,28,00,18,10.90
2016,05,28,00,19,11.10
2016,05,28,00,20,11.10
2016,05,28,00,21,11.10
2016,05,28,00,22,11.10
2016,05,28,00,23,11.10
2016,05,28,00,24,11.10
2016,05,28,00,25,11.10
2016,05,28,00,26,10.90
2016,05,28,00,27,10.90
2016,05,28,00,28,10.90
2016,05,28,00,29,10.90
2016,05,28,00,30,10.90
2016,05,28,00,31,10.90
2016,05,28,00,32,10.90
2016,05,28,00,33,10.90
2016,05,28,00,34,10.90
2016,05,28,00,35,10.90
2016,05,28,00,36,10.90
2016,05,28,00,37,10.90
2016,05,28,00,38,10.90
2016,05,28,00,39,10.90
2016,05,28,00,40,10.90
2016,05,28,00,41,10.90
2016,05,28,00,42,10.90
2016,05,28,00,43,10.90
2016,05,28,00,44,10.90
2016,05,28,00,45,10.90
2016,05,28,00,46,10.90
2016,05,28,00,47,10.90
2016,05,28,00,48,10.90
2016,05,28,00,49,10.90
2016,05,28,00,50,10.90
2016,05,28,00,51,10.90
2016,05,28,00,52,10.90
2016,05,28,00,53,10.90
2016,05,28,00,54,10.90
2016,05,28,00,55,10.90
2016,05,28,00,56,10.90
2016,05,28,00,57,10.90
2016,05,28,00,58,10.90
2016,05,28,00,59,10.90
2016,05,28,01,00,10.90
2016,05,28,01,01,10.90
2016,05,28,01,02,10.90
2016,05,28,01,03,10.90
2016,05,28,01,04,10.90
2016,05,28,01,05,10.90
2016,05,28,01,06,10.90
2016,05,28,01,07,10.80
2016,05,28,01,08,10.80
2016,05,28,01,09,10.80
2016,05,28,01,10,10.80
2016,05,28,01,12,10.80
2016,05,28,01,13,10.70
2016,05,28,01,14,10.70
2016,05,28,01,16,10.70
2016,05,28,01,17,10.60
2016,05,28,01,18,10.60
2016,05,28,01,19,10.60
2016,05,28,01,21,10.60
2016,05,28,01,22,10.60
2016,05,28,01,23,10.60
2016,05,28,01,24,10.60
2016,05,28,01,26,10.60
2016,05,28,01,27,10.60
2016,05,28,01,28,10.60
2016,05,28,01,29,10.40
2016,05,28,01,31,10.40
2016,05,28,01,32,10.40
2016,05,28,01,33,10.40
2016,05,28,01,34,10.40
2016,05,28,01,36,10.40
2016,05,28,01,37,10.40
2016,05,28,01,38,10.30
2016,05,28,01,39,10.30
2016,05,28,01,41,10.30
2016,05,28,01,42,10.30
2016,05,28,01,43,10.30
2016,05,28,01,44,10.30
2016,05,28,01,46,10.20
2016,05,28,01,47,10.20
2016,05,28,01,48,10.20
2016,05,28,01,49,10.20
2016,05,28,01,51,10.20
2016,05,28,01,52,10.20
2016,05,28,01,53,10.20
2016,05,28,01,54,10.20
2016,05,28,01,56,10.20
2016,05,28,01,57,10.20
2016,05,28,01,58,10.20
2016,05,28,01,59,10.10
2016,05,28,02,01,10.10
2016,05,28,02,02,10.10
2016,05,28,02,03,10.10
2016,05,28,02,04,10.10
2016,05,28,02,06,10.10
2016,05,28,02,07,10.10
2016,05,28,02,08,10.10
2016,05,28,02,09,10.10
2016,05,28,02,11,10.10
2016,05,28,02,12,10.10
2016,05,28,02,13,10.10
2016,05,28,02,14,10.10
2016,05,28,02,16,10.10
2016,05,28,02,17,10.10
2016,05,28,02,18,10.10
2016,05,28,02,19,10.10
2016,05,28,02,21,10.10
2016,05,28,02,22,10.10
2016,05,28,02,23,10.10
2016,05,28,02,24,10.10
2016,05,28,02,26,10.10
2016,05,28,02,27,10.10
2016,05,28,02,28,10.10
2016,05,28,02,29,10.10
2016,05,28,02,31,10.10
2016,05,28,02,32,10.10
2016,05,28,02,33,10.10
2016,05,28,02,34,10.10
2016,05,28,02,36,10.10
2016,05,28,02,37,10.10
2016,05,28,02,38,10.10
2016,05,28,02,39,10.10
2016,05,28,02,40,10.10
2016,05,28,02,41,10.10
2016,05,28,02,42,10.10
2016,05,28,02,43,10.10
2016,05,28,02,44,10.10
2016,05,28,02,45,10.10
2016,05,28,02,46,10.10
2016,05,28,02,47,10.10
2016,05,28,02,48,10.10
2016,05,28,02,49,10.10
2016,05,28,02,50,10.10
2016,05,28,02,51,10.10
2016,05,28,02,52,10.10
2016,05,28,02,53,10.10
2016,05,28,02,54,10.10
2016,05,28,02,55,10.10
2016,05,28,02,56,10.10
2016,05,28,02,57,10.10
2016,05,28,02,58,10.10
2016,05,28,02,59,10.10
2016,05,28,03,00,10.10
2016,05,28,03,01,10.10
2016,05,28,03,02,10.10
2016,05,28,03,03,10.10
2016,05,28,03,04,10.10
2016,05,28,03,05,10.10
2016,05,28,03,06,10.10
2016,05,28,03,07,10.10
2016,05,28,03,08,10.10
2016,05,28,03,09,10.10
2016,05,28,03,10,10.10
2016,05,28,03,11,10.10
2016,05,28,03,12,10.10
2016,05,28,03,13,10.10
2016,05,28,03,14,10.10
2016,05,28,03,15,10.10
2016,05,28,03,16,10.10
2016,05,28,03,17,10.10
2016,05,28,03,18,10.10
2016,05,28,03,19,10.10
2016,05,28,03,20,10.10
2016,05,28,03,21,10.10
2016,05,28,03,22,10.10
2016,05,28,03,23,9.90
2016,05,28,03,24,9.90
2016,05,28,03,25,9.90
2016,05,28,03,26,9.90
2016,05,28,03,27,9.90
2016,05,28,03,28,9.90
2016,05,28,04,23,9.90
2016,05,28,04,24,9.90
2016,05,28,04,25,9.90
2016,05,28,04,26,9.90
2016,05,28,04,27,9.80
2016,05,28,04,28,9.80
2016,05,28,04,29,9.80
2016,05,28,04,30,9.80
2016,05,28,04,31,9.80
2016,05,28,04,32,9.80
2016,05,28,04,33,9.70
2016,05,28,04,34,9.70
2016,05,28,04,35,9.70
2016,05,28,04,36,9.70
2016,05,28,04,37,9.70
2016,05,28,04,38,9.70
2016,05,28,04,39,9.70
2016,05,28,04,40,9.80
2016,05,28,04,41,9.80
2016,05,28,04,42,9.80
2016,05,28,05,23,10.10
2016,05,28,05,24,10.10
2016,05,28,05,25,10.10
2016,05,28,05,26,10.10
2016,05,28,05,27,10.10
2016,05,28,05,28,10.10
2016,05,28,05,29,10.10
2016,05,28,05,30,10.10
2016,05,28,05,31,10.10
2016,05,28,05,32,10.10
2016,05,28,05,33,10.10
2016,05,28,05,34,10.10
2016,05,28,05,35,10.10
2016,05,28,05,36,10.10
2016,05,28,05,37,10.10
2016,05,28,05,38,10.10
2016,05,28,05,39,10.10
2016,05,28,05,40,10.10
2016,05,28,05,41,10.10
2016,05,28,05,42,10.10
2016,05,28,05,43,10.10
2016,05,28,05,44,10.10
2016,05,28,05,45,10.10
2016,05,28,05,46,10.10
2016,05,28,05,47,10.10
2016,05,28,05,48,10.10
2016,05,28,05,49,10.10
2016,05,28,05,50,10.10
2016,05,28,05,51,10.10
2016,05,28,05,52,10.10
2016,05,28,05,53,10.10
2016,05,28,05,54,10.10
2016,05,28,05,55,10.10
2016,05,28,05,56,10.10
2016,05,28,05,57,10.10
2016,05,28,05,58,10.10
2016,05,28,05,59,10.10
2016,05,28,06,00,10.10
2016,05,28,06,01,10.10
2016,05,28,06,03,10.10
2016,05,28,06,04,10.10
2016,05,28,06,06,10.10
2016,05,28,06,07,10.10
2016,05,28,06,08,10.10
2016,05,28,06,09,10.10
2016,05,28,06,11,10.10
2016,05,28,06,12,10.10
2016,05,28,06,13,10.10
2016,05,28,06,14,10.10
2016,05,28,06,16,10.10
2016,05,28,06,17,10.10
2016,05,28,06,18,10.10
2016,05,28,06,19,10.10
2016,05,28,06,21,10.20
2016,05,28,06,22,10.20
2016,05,28,06,23,10.20
2016,05,28,06,24,10.20
2016,05,28,06,26,10.10
2016,05,28,06,27,10.10
2016,05,28,06,28,10.10
2016,05,28,06,29,10.10
2016,05,28,06,31,10.20
2016,05,28,06,32,10.20
2016,05,28,06,33,10.20
2016,05,28,06,34,10.20
2016,05,28,06,36,10.20
2016,05,28,06,37,10.20
2016,05,28,06,38,10.20
2016,05,28,06,39,10.10
2016,05,28,06,41,10.10
2016,05,28,06,42,10.10
2016,05,28,06,43,10.10
2016,05,28,06,44,10.10
2016,05,28,06,46,10.20
2016,05,28,06,47,10.10
2016,05,28,06,48,10.10
2016,05,28,06,49,10.10
2016,05,28,06,51,10.20
2016,05,28,06,52,10.20
2016,05,28,06,53,10.20
2016,05,28,06,54,10.20
2016,05,28,06,56,10.20
2016,05,28,06,57,10.20
2016,05,28,06,58,10.20
2016,05,28,06,59,10.20
2016,05,28,07,01,10.10
2016,05,28,07,02,10.10
2016,05,28,07,03,10.10
2016,05,28,07,04,10.10
2016,05,28,07,06,10.10
2016,05,28,07,07,10.10
2016,05,28,07,08,10.10
2016,05,28,07,09,10.10
2016,05,28,07,11,10.10
2016,05,28,07,12,10.10
2016,05,28,07,13,10.10
2016,05,28,07,14,10.10
2016,05,28,07,15,10.10
2016,05,28,07,16,10.10
2016,05,28,07,17,10.10
2016,05,28,07,18,10.20
2016,05,28,07,19,10.20
2016,05,28,07,21,10.30
2016,05,28,07,22,10.30
2016,05,28,07,23,10.30
2016,05,28,07,24,10.30
2016,05,28,07,25,10.30
2016,05,28,07,26,10.40
2016,05,28,07,27,10.40
2016,05,28,07,28,10.40
2016,05,28,07,29,10.40
2016,05,28,07,30,10.40
2016,05,28,07,31,10.30
2016,05,28,07,32,10.40
2016,05,28,07,33,10.40
2016,05,28,07,34,10.40
2016,05,28,07,35,10.40
2016,05,28,07,36,10.40
2016,05,28,07,37,10.40
2016,05,28,07,38,10.40
2016,05,28,07,39,10.40
2016,05,28,07,40,10.40
2016,05,28,07,41,10.40
2016,05,28,07,42,10.40
2016,05,28,07,43,10.40
2016,05,28,07,44,10.40
2016,05,28,07,45,10.40
2016,05,28,07,46,10.40
2016,05,28,07,47,10.40
2016,05,28,07,48,10.60
2016,05,28,07,49,10.60
2016,05,28,07,50,10.60
2016,05,28,07,51,10.60
2016,05,28,07,52,10.60
2016,05,28,07,53,10.60
2016,05,28,07,54,10.60
2016,05,28,07,55,10.60
2016,05,28,07,56,10.60
2016,05,28,07,57,10.60
2016,05,28,07,58,10.60
2016,05,28,07,59,10.60
2016,05,28,08,00,10.60
2016,05,28,08,01,10.60
2016,05,28,08,02,10.60
2016,05,28,08,03,10.60
2016,05,28,08,04,10.60
2016,05,28,08,05,10.60
2016,05,28,08,06,10.60
2016,05,28,08,07,10.60
2016,05,28,08,08,10.60
2016,05,28,08,09,10.60
2016,05,28,08,10,10.60
2016,05,28,08,11,10.60
2016,05,28,08,12,10.60
2016,05,28,08,13,10.60
2016,05,28,08,14,10.70
2016,05,28,08,15,10.70
2016,05,28,08,16,10.70
2016,05,28,08,17,10.70
2016,05,28,08,18,10.70
2016,05,28,08,19,10.70
2016,05,28,08,20,10.70
2016,05,28,08,21,10.60
2016,05,28,08,22,10.70
2016,05,28,08,23,10.70
2016,05,28,08,24,10.70
2016,05,28,08,25,10.70
2016,05,28,08,26,10.70
2016,05,28,08,27,10.70
2016,05,28,08,28,10.70
2016,05,28,08,29,10.70
2016,05,28,08,30,10.70
2016,05,28,08,31,10.70
2016,05,28,08,32,10.70
2016,05,28,08,33,10.70
2016,05,28,08,34,10.70
2016,05,28,08,35,10.80
2016,05,28,08,36,10.80
2016,05,28,08,37,10.80
2016,05,28,08,38,10.80
2016,05,28,08,39,10.80
2016,05,28,08,40,10.80
2016,05,28,08,41,10.80
2016,05,28,08,42,10.80
2016,05,28,08,44,10.80
2016,05,28,08,46,10.80
2016,05,28,08,47,10.80
2016,05,28,08,48,10.80
2016,05,28,08,49,10.80
2016,05,28,08,51,10.80
2016,05,28,08,52,10.80
2016,05,28,08,53,10.80
2016,05,28,08,54,10.80
2016,05,28,08,56,10.80
2016,05,28,08,57,10.80
2016,05,28,08,58,10.80
2016,05,28,08,59,10.80
2016,05,28,09,01,10.80
2016,05,28,09,02,10.80
2016,05,28,09,03,10.80
2016,05,28,09,04,10.80
2016,05,28,09,06,10.80
2016,05,28,09,07,10.80
2016,05,28,09,08,10.80
2016,05,28,09,09,10.80
2016,05,28,09,11,10.80
2016,05,28,09,12,10.80
2016,05,28,09,13,10.80
2016,05,28,09,14,10.80
2016,05,28,09,16,10.80
2016,05,28,09,17,10.80
2016,05,28,09,18,10.80
2016,05,28,09,19,10.80
2016,05,28,09,21,10.90
2016,05,28,09,22,10.90
2016,05,28,09,23,10.90
2016,05,28,09,24,10.80
2016,05,28,09,26,10.90
2016,05,28,09,27,10.90
2016,05,28,09,28,10.90
2016,05,28,09,29,10.90
2016,05,28,09,31,10.90
2016,05,28,09,32,10.90
2016,05,28,09,33,10.90
2016,05,28,09,34,10.90
2016,05,28,09,36,10.90
2016,05,28,09,37,10.90
2016,05,28,09,38,10.90
2016,05,28,09,39,10.90
2016,05,28,09,41,10.90
2016,05,28,09,42,10.90
2016,05,28,09,43,10.90
2016,05,28,09,44,10.90
2016,05,28,09,46,10.90
2016,05,28,09,47,10.90
2016,05,28,09,48,10.90
2016,05,28,09,49,10.90
2016,05,28,09,51,10.90
2016,05,28,09,52,10.90
2016,05,28,09,53,10.90
2016,05,28,09,54,10.90
2016,05,28,09,56,10.90
2016,05,28,09,57,10.90
2016,05,28,09,58,10.90
2016,05,28,09,59,10.90
2016,05,28,10,01,10.90
2016,05,28,10,02,10.90
2016,05,28,10,03,10.90
2016,05,28,10,04,10.90
2016,05,28,10,06,11.10
2016,05,28,10,07,11.10
2016,05,28,10,08,11.10
2016,05,28,10,09,11.10
2016,05,28,10,10,11.10
2016,05,28,10,11,11.10
2016,05,28,10,12,11.10
2016,05,28,10,13,11.10
2016,05,28,10,14,11.10
2016,05,28,10,15,11.10
2016,05,28,10,16,11.20
2016,05,28,10,17,11.10
2016,05,28,10,18,11.20
2016,05,28,10,19,11.20
2016,05,28,10,20,11.20
2016,05,28,10,21,11.20
2016,05,28,10,22,11.20
2016,05,28,10,23,11.30
2016,05,28,10,24,11.30
2016,05,28,10,25,11.30
2016,05,28,10,26,11.30
2016,05,28,10,27,11.30
2016,05,28,10,28,11.30
2016,05,28,10,29,11.30
2016,05,28,10,30,11.30
2016,05,28,10,31,11.30
2016,05,28,10,32,11.30
2016,05,28,10,33,11.30
2016,05,28,10,34,11.30
2016,05,28,10,35,11.30
2016,05,28,10,36,11.30
2016,05,28,10,37,11.30
2016,05,28,10,38,11.30
2016,05,28,10,39,11.30
2016,05,28,10,40,11.30
2016,05,28,10,41,11.30
2016,05,28,10,42,11.30
2016,05,28,10,43,11.30
2016,05,28,10,44,11.30
2016,05,28,10,45,11.30
2016,05,28,10,46,11.30
2016,05,28,10,47,11.30
2016,05,28,10,48,11.30
2016,05,28,10,49,11.40
2016,05,28,10,50,11.40
2016,05,28,10,51,11.40
2016,05,28,10,52,11.40
2016,05,28,10,53,11.40
2016,05,28,10,54,11.40
2016,05,28,10,55,11.40
2016,05,28,10,56,11.60
2016,05,28,10,57,11.60
2016,05,28,10,58,11.60
2016,05,28,10,59,11.60
2016,05,28,11,00,11.60
2016,05,28,11,01,11.60
2016,05,28,11,02,11.60
2016,05,28,11,03,11.60
2016,05,28,11,04,11.60
2016,05,28,11,05,11.60
2016,05,28,11,06,11.60
2016,05,28,11,07,11.70
2016,05,28,11,08,11.70
2016,05,28,11,09,11.80
2016,05,28,11,10,11.80
2016,05,28,11,11,11.80
2016,05,28,11,12,11.80
2016,05,28,11,13,11.80
2016,05,28,11,14,11.80
2016,05,28,11,15,11.80
2016,05,28,11,16,11.80
2016,05,28,11,17,11.80
2016,05,28,11,18,11.80
2016,05,28,11,19,11.80
2016,05,28,11,20,11.80
2016,05,28,11,21,11.80
2016,05,28,11,22,11.80
2016,05,28,11,23,11.80
2016,05,28,11,24,11.80
2016,05,28,11,25,11.80
2016,05,28,11,26,11.80
2016,05,28,11,27,11.80
2016,05,28,11,28,11.90
2016,05,28,11,29,11.90
2016,05,28,11,30,12.00
2016,05,28,11,32,12.20
2016,05,28,11,34,12.30
2016,05,28,11,36,12.30
2016,05,28,11,37,12.30
2016,05,28,11,38,12.30
2016,05,28,11,39,12.30
2016,05,28,11,41,12.50
2016,05,28,11,42,12.60
2016,05,28,11,43,12.70
2016,05,28,11,44,12.80
2016,05,28,11,46,12.80
2016,05,28,11,47,12.80
2016,05,28,11,48,12.80
2016,05,28,11,49,12.70
2016,05,28,11,51,12.70
2016,05,28,11,52,12.70
2016,05,28,11,53,12.70
2016,05,28,11,54,12.70
2016,05,28,11,56,12.70
2016,05,28,11,57,12.70
2016,05,28,11,58,12.70
2016,05,28,11,59,12.70
2016,05,28,12,01,12.70
2016,05,28,12,02,12.70
2016,05,28,12,03,12.70
2016,05,28,12,04,12.70
2016,05,28,12,06,12.70
2016,05,28,12,07,12.60
2016,05,28,12,08,12.60
2016,05,28,12,09,12.50
2016,05,28,12,11,12.50
2016,05,28,12,12,12.50
2016,05,28,12,13,12.50
2016,05,28,12,14,12.50
2016,05,28,12,16,12.50
2016,05,28,12,17,12.50
2016,05,28,12,18,12.50
2016,05,28,12,19,12.50
2016,05,28,12,21,12.40
2016,05,28,12,22,12.40
2016,05,28,12,23,12.40
2016,05,28,12,24,12.30
2016,05,28,12,26,12.30
2016,05,28,12,27,12.30
2016,05,28,12,28,12.30
2016,05,28,12,29,12.30
2016,05,28,12,31,12.30
2016,05,28,12,32,12.30
2016,05,28,12,33,12.30
2016,05,28,12,34,12.30
2016,05,28,12,36,12.20
2016,05,28,12,37,12.20
2016,05,28,12,38,12.20
2016,05,28,12,39,12.20
2016,05,28,12,41,12.10
2016,05,28,12,42,12.10
2016,05,28,12,43,12.10
2016,05,28,12,44,12.10
2016,05,28,12,46,12.10
2016,05,28,12,47,12.00
2016,05,28,12,48,12.00
2016,05,28,12,49,12.00
2016,05,28,12,51,11.90
2016,05,28,12,52,11.90
2016,05,28,12,53,11.90
2016,05,28,12,54,11.90
2016,05,28,12,55,11.90
2016,05,28,12,56,11.80
2016,05,28,12,57,11.80
2016,05,28,12,58,11.90
2016,05,28,12,59,11.90
2016,05,28,13,00,11.90
2016,05,28,13,01,12.00
2016,05,28,13,02,12.10
2016,05,28,13,03,12.10
2016,05,28,13,04,12.10
2016,05,28,13,06,12.10
2016,05,28,13,07,12.10
2016,05,28,13,08,12.20
2016,05,28,13,09,12.20
2016,05,28,13,10,12.20
2016,05,28,13,11,12.20
2016,05,28,13,12,12.20
2016,05,28,13,13,12.20
2016,05,28,13,14,12.20
2016,05,28,13,15,12.20
2016,05,28,13,16,12.30
2016,05,28,13,17,12.30
2016,05,28,13,18,12.40
2016,05,28,13,19,12.50
2016,05,28,13,20,12.60
2016,05,28,13,21,12.70
2016,05,28,13,22,12.80
2016,05,28,13,23,12.80
2016,05,28,13,24,12.90
2016,05,28,13,25,13.00
2016,05,28,13,26,12.90
2016,05,28,13,27,12.90
2016,05,28,13,28,12.80
2016,05,28,13,29,12.80
2016,05,28,13,30,12.80
2016,05,28,13,31,12.80
2016,05,28,13,32,12.80
2016,05,28,13,33,12.80
2016,05,28,13,34,12.80
2016,05,28,13,35,12.70
2016,05,28,13,36,12.70
2016,05,28,13,37,12.80
2016,05,28,13,38,12.80
2016,05,28,13,39,12.80
2016,05,28,13,40,12.80
2016,05,28,13,41,12.90
2016,05,28,13,42,12.90
2016,05,28,13,43,13.00
2016,05,28,13,44,13.00
2016,05,28,13,45,13.00
2016,05,28,13,46,13.10
2016,05,28,13,47,13.10
2016,05,28,13,48,13.10
2016,05,28,13,49,13.20
2016,05,28,13,50,13.30
2016,05,28,13,51,13.30
2016,05,28,13,52,13.30
2016,05,28,13,53,13.40
2016,05,28,13,54,13.40
2016,05,28,13,55,13.50
2016,05,28,13,56,13.60
2016,05,28,13,57,13.70
2016,05,28,13,58,13.70
2016,05,28,13,59,13.70
2016,05,28,14,00,13.80
2016,05,28,14,01,13.90
2016,05,28,14,02,14.00
2016,05,28,14,03,14.00
2016,05,28,14,04,14.10
2016,05,28,14,05,14.10
2016,05,28,14,06,14.20
2016,05,28,14,07,14.20
2016,05,28,14,08,14.20
2016,05,28,14,09,14.20
2016,05,28,14,10,14.20
2016,05,28,14,11,14.20
2016,05,28,14,12,14.20
2016,05,28,14,13,14.20
2016,05,28,14,14,14.20
2016,05,28,14,15,14.20
2016,05,28,14,16,14.20
2016,05,28,14,17,14.20
2016,05,28,14,18,14.20
2016,05,28,14,19,14.20
2016,05,28,14,20,14.20
2016,05,28,14,22,14.20
2016,05,28,14,23,14.20
2016,05,28,14,24,14.20
2016,05,28,14,26,14.30
2016,05,28,14,27,14.30
2016,05,28,14,28,14.30
2016,05,28,14,29,14.40
2016,05,28,14,31,14.50
2016,05,28,14,32,14.50
2016,05,28,14,33,14.50
2016,05,28,14,34,14.50
2016,05,28,14,36,14.50
2016,05,28,14,37,14.40
2016,05,28,14,38,14.40
2016,05,28,14,39,14.40
2016,05,28,14,41,14.30
2016,05,28,14,42,14.30
2016,05,28,14,43,14.30
2016,05,28,14,44,14.20
2016,05,28,14,46,14.20
2016,05,28,14,47,14.20
2016,05,28,14,48,14.20
2016,05,28,14,49,14.20
2016,05,28,14,51,14.20
2016,05,28,14,52,14.20
2016,05,28,14,53,14.20
2016,05,28,14,54,14.20
2016,05,28,14,56,14.20
2016,05,28,14,57,14.10
2016,05,28,14,58,14.10
2016,05,28,14,59,14.20
2016,05,28,15,01,14.20
2016,05,28,15,02,14.20
2016,05,28,15,03,14.20
2016,05,28,15,04,14.20
2016,05,28,15,06,14.20
2016,05,28,15,07,14.20
2016,05,28,15,08,14.20
2016,05,28,15,09,14.10
2016,05,28,15,11,14.10
2016,05,28,15,12,14.10
2016,05,28,15,13,14.10
2016,05,28,15,14,14.10
2016,05,28,15,16,14.00
2016,05,28,15,17,14.00
2016,05,28,15,18,14.00
2016,05,28,15,19,13.90
2016,05,28,15,21,13.90
2016,05,28,15,22,13.90
2016,05,28,15,23,13.90
2016,05,28,15,24,13.80
2016,05,28,15,26,13.80
2016,05,28,15,27,13.80
2016,05,28,15,28,13.80
2016,05,28,15,29,13.80
2016,05,28,15,31,13.70
2016,05,28,15,32,13.70
2016,05,28,15,33,13.70
2016,05,28,15,34,13.70
2016,05,28,15,36,13.70
2016,05,28,15,37,13.70
2016,05,28,15,38,13.70
2016,05,28,15,39,13.70
2016,05,28,15,41,13.70
2016,05,28,15,42,13.70
2016,05,28,15,43,13.70
2016,05,28,15,44,13.60
2016,05,28,15,45,13.60
2016,05,28,15,46,13.60
2016,05,28,15,47,13.60
2016,05,28,15,48,13.60
2016,05,28,15,49,13.50
2016,05,28,15,50,13.50
2016,05,28,15,51,13.50
2016,05,28,15,52,13.50
2016,05,28,15,53,13.40
2016,05,28,15,54,13.40
2016,05,28,15,55,13.40
2016,05,28,15,56,13.40
2016,05,28,15,57,13.30
2016,05,28,15,58,13.30
2016,05,28,15,59,13.30
2016,05,28,16,00,13.30
2016,05,28,16,01,13.30
2016,05,28,16,02,13.40
2016,05,28,16,03,13.40
2016,05,28,16,04,13.40
2016,05,28,16,05,13.40
2016,05,28,16,06,13.40
2016,05,28,16,07,13.40
2016,05,28,16,08,13.40
2016,05,28,16,09,13.40
2016,05,28,16,10,13.30
2016,05,28,16,11,13.30
2016,05,28,16,12,13.30
2016,05,28,16,13,13.40
2016,05,28,16,14,13.40
2016,05,28,16,15,13.40
2016,05,28,16,16,13.40
2016,05,28,16,17,13.40
2016,05,28,16,18,13.40
2016,05,28,16,19,13.40
2016,05,28,16,20,13.40
2016,05,28,16,21,13.40
2016,05,28,16,22,13.40
2016,05,28,16,23,13.50
2016,05,28,16,24,13.50
2016,05,28,16,25,13.50
2016,05,28,16,26,13.50
2016,05,28,16,27,13.50
2016,05,28,16,28,13.60
2016,05,28,16,29,13.60
2016,05,28,16,30,13.60
2016,05,28,16,31,13.60
2016,05,28,16,32,13.60
2016,05,28,16,33,13.60
2016,05,28,16,34,13.60
2016,05,28,16,35,13.60
2016,05,28,16,36,13.60
2016,05,28,16,37,13.60
2016,05,28,16,38,13.50
2016,05,28,16,39,13.50
2016,05,28,16,40,13.50
2016,05,28,16,41,13.60
2016,05,28,16,42,13.60
2016,05,28,16,43,13.60
2016,05,28,16,44,13.60
2016,05,28,16,45,13.60
2016,05,28,16,46,13.60
2016,05,28,16,47,13.60
2016,05,28,16,48,13.70
2016,05,28,16,49,13.70
2016,05,28,16,50,13.70
2016,05,28,16,51,13.70
2016,05,28,16,52,13.70
2016,05,28,16,53,13.70
2016,05,28,16,54,13.80
2016,05,28,16,55,13.80
2016,05,28,16,56,13.80
2016,05,28,16,57,13.90
2016,05,28,16,58,13.90
2016,05,28,16,59,13.90
2016,05,28,17,00,13.90
2016,05,28,17,01,13.90
2016,05,28,17,02,13.90
2016,05,28,17,03,13.90
2016,05,28,17,04,14.00
2016,05,28,17,05,14.00
2016,05,28,17,06,14.00
2016,05,28,17,07,14.00
2016,05,28,17,08,14.00
2016,05,28,17,09,14.00
2016,05,28,17,11,14.00
2016,05,28,17,12,14.00
2016,05,28,17,13,14.00
2016,05,28,17,14,14.00
2016,05,28,17,16,14.10
2016,05,28,17,17,14.10
2016,05,28,17,18,14.10
2016,05,28,17,19,14.10
2016,05,28,17,21,14.10
2016,05,28,17,22,14.10
2016,05,28,17,23,14.10
2016,05,28,17,24,14.10
2016,05,28,17,26,14.10
2016,05,28,17,27,14.10
2016,05,28,17,28,14.10
2016,05,28,17,29,14.10
2016,05,28,17,31,14.10
2016,05,28,17,32,14.10
2016,05,28,17,33,14.10
2016,05,28,17,34,14.20
2016,05,28,17,36,14.10
2016,05,28,17,37,14.10
2016,05,28,17,38,14.00
2016,05,28,17,39,14.00
2016,05,28,17,41,13.80
2016,05,28,17,42,13.80
2016,05,28,17,43,13.70
2016,05,28,17,44,13.70
2016,05,28,17,46,13.60
2016,05,28,17,47,13.60
2016,05,28,17,48,13.60
2016,05,28,17,49,13.50
2016,05,28,17,51,13.40
2016,05,28,17,52,13.40
2016,05,28,17,53,13.40
2016,05,28,17,54,13.40
2016,05,28,17,56,13.30
2016,05,28,17,57,13.30
2016,05,28,17,58,13.40
2016,05,28,17,59,13.40
2016,05,28,18,01,13.40
2016,05,28,18,02,13.40
2016,05,28,18,03,13.40
2016,05,28,18,04,13.40
2016,05,28,18,06,13.40
2016,05,28,18,07,13.40
2016,05,28,18,08,13.30
2016,05,28,18,09,13.30
2016,05,28,18,11,13.30
2016,05,28,18,12,13.20
2016,05,28,18,13,13.20
2016,05,28,18,14,13.20
2016,05,28,18,16,13.10
2016,05,28,18,17,13.10
2016,05,28,18,18,13.10
2016,05,28,18,19,13.10
2016,05,28,18,21,13.00
2016,05,28,18,22,13.00
2016,05,28,18,23,13.00
2016,05,28,18,24,12.90
2016,05,28,18,26,12.90
2016,05,28,18,27,12.90
2016,05,28,18,28,12.90
2016,05,28,18,29,12.80
2016,05,28,18,31,12.80
2016,05,28,18,32,12.80
2016,05,28,18,33,12.80
2016,05,28,18,34,12.80
2016,05,28,18,36,12.70
2016,05,28,18,37,12.70
2016,05,28,18,38,12.60
2016,05,28,18,39,12.60
2016,05,28,18,40,12.60
2016,05,28,18,41,12.50
2016,05,28,18,42,12.50
2016,05,28,18,43,12.50
2016,05,28,18,44,12.50
2016,05,28,18,45,12.50
2016,05,28,18,46,12.50
2016,05,28,18,47,12.50
2016,05,28,18,48,12.50
2016,05,28,18,49,12.50
2016,05,28,18,50,12.50
2016,05,28,18,51,12.50
2016,05,28,18,52,12.50
2016,05,28,18,53,12.50
2016,05,28,18,54,12.40
2016,05,28,18,55,12.40
2016,05,28,18,56,12.40
2016,05,28,18,57,12.40
2016,05,28,18,58,12.40
2016,05,28,18,59,12.30
2016,05,28,19,00,12.30
2016,05,28,19,01,12.30
2016,05,28,19,02,12.30
2016,05,28,19,03,12.20
2016,05,28,19,04,12.20
2016,05,28,19,05,12.20
2016,05,28,19,06,12.20
2016,05,28,19,07,12.30
2016,05,28,19,08,12.30
2016,05,28,19,09,12.30
2016,05,28,19,10,12.30
2016,05,28,19,11,12.30
2016,05,28,19,12,12.30
2016,05,28,19,13,12.30
2016,05,28,19,14,12.30
2016,05,28,19,15,12.30
2016,05,28,19,16,12.40
2016,05,28,19,17,12.40
2016,05,28,19,18,12.40
2016,05,28,19,19,12.40
2016,05,28,19,20,12.50
2016,05,28,19,21,12.50
2016,05,28,19,22,12.50
2016,05,28,19,23,12.50
2016,05,28,19,24,12.50
2016,05,28,19,25,12.60
2016,05,28,19,26,12.60
2016,05,28,19,27,12.60
2016,05,28,19,28,12.70
2016,05,28,19,29,12.70
2016,05,28,19,30,12.70
2016,05,28,19,31,12.80
2016,05,28,19,32,12.80
2016,05,28,19,33,12.80
2016,05,28,19,34,12.80
2016,05,28,19,35,12.80
2016,05,28,19,36,12.80
2016,05,28,19,37,12.80
2016,05,28,19,39,12.80
2016,05,28,19,41,12.90
2016,05,28,19,42,12.90
2016,05,28,19,43,12.90
2016,05,28,19,44,12.90
2016,05,28,19,46,13.00
2016,05,28,19,47,13.00
2016,05,28,19,48,13.00
2016,05,28,19,49,13.00
2016,05,28,19,51,13.00
2016,05,28,19,52,13.00
2016,05,28,19,53,13.00
2016,05,28,19,54,13.00
2016,05,28,19,56,13.00
2016,05,28,19,57,13.00
2016,05,28,19,58,13.00
2016,05,28,19,59,13.00
2016,05,28,20,01,13.00
2016,05,28,20,02,13.00
2016,05,28,20,03,13.00
2016,05,28,20,04,13.00
2016,05,28,20,06,12.90
2016,05,28,20,07,12.90
2016,05,28,20,08,12.90
2016,05,28,20,09,12.90
2016,05,28,20,11,12.80
2016,05,28,20,12,12.80
2016,05,28,20,13,12.80
2016,05,28,20,14,12.80
2016,05,28,20,16,12.70
2016,05,28,20,17,12.70
2016,05,28,20,18,12.70
2016,05,28,20,19,12.70
2016,05,28,20,21,12.60
2016,05,28,20,22,12.60
2016,05,28,20,23,12.50
2016,05,28,20,24,12.50
2016,05,28,20,26,12.50
2016,05,28,20,27,12.50
2016,05,28,20,28,12.50
2016,05,28,20,29,12.50
2016,05,28,20,31,12.50
2016,05,28,20,32,12.50
2016,05,28,20,33,12.50
2016,05,28,20,34,12.50
2016,05,28,20,36,12.50
2016,05,28,20,37,12.50
2016,05,28,20,38,12.50
2016,05,28,20,39,12.50
2016,05,28,20,41,12.50
2016,05,28,20,42,12.50
2016,05,28,20,43,12.50
2016,05,28,20,44,12.40
2016,05,28,20,46,12.40
2016,05,28,20,47,12.40
2016,05,28,20,48,12.40
2016,05,28,20,49,12.40
2016,05,28,20,51,12.40
2016,05,28,20,52,12.40
2016,05,28,20,53,12.40
2016,05,28,20,54,12.40
2016,05,28,20,55,12.40
2016,05,28,20,56,12.40
2016,05,28,20,57,12.40